Location: St. Louis
(38.6270°N, 90.1994°W)
Time: 20:37:25
(UTC-05:00)

deb Delta - Pass Details

Date: 05 July 2022
Orbit: 1084 x 1202 km, 99.8° (Epoch: 13 August)

Event Time Altitude Azimuth Distance (km) Brightness Sun altitude
Exits shadow 01:56:10 54° 157° (SSE) 1,432 ? -27.5°
Maximum altitude 01:58:04 85° 74° (ENE) 1,207 ? -27.4°
Drops below altitude 10° 02:05:15 10° 346° (NNW) 3,122 ? -27.0°
Sets 02:07:51 0° 347° (NNW) 4,077 ? -26.9°
